Location: B�rgermoos
(47.6500°N, 9.0667°E)
Time: 18:32:44
(UTC+00:00)

Tiros 1 - Pass Details

Date: 06 August 2021
Orbit: 630 x 663 km, 48.4° (Epoch: 20 September)

Event Time Altitude Azimuth Distance (km) Brightness Sun altitude
Rises 20:13:08 0° 286° (WNW) 2,981 11.8 -12.3°
Reaches altitude 10° 20:15:31 10° 282° (WNW) 2,063 10.7 -12.6°
Maximum altitude 20:20:11 57° 204° (SSW) 763 7.4 -13.2°
Enters shadow 20:23:08 21° 132° (SE) 1,436 8.3 -13.6°
Drops below altitude 10° 20:24:47 10° 126° (SE) 2,034 - -13.8°
Sets 20:27:07 0° 123° (ESE) 2,936 - -14.0°
